Wind_Speed
69 62 58 60 63 64 65 66 65 62 62 62 61 59 57 55 55 53 46 35 32 34 35 33 31 28 27 27 27 28 29 32 34 36 37 38 39 40 41 42 42 39 35 34 34 33 33 34 34 33 32 30 30 29 29 29 30 32 32 31 29 27 26 25 26 27 28 29 29 30 30 30 30 29 28 28 27 27 26 25 24 24 23 21 20 19 19
69 65 58 60 63 63 64 65 65 63 63 63 62 60 57 56 55 51 42 35 33 33 32 31 29 29 30 30 30 30 31 31 31 31 34 36 39 41 43 44 43 39 37 37 36 34 34 34 34 34 33 32 30 29 29 29 30 31 31 31 29 27 25 25 27 28 30 30 30 30 30 30 30 29 29 28 27 27 26 26 25 24 22 21 20 20 20
68 67 61 60 63 63 62 64 65 65 64 63 62 60 57 56 55 48 39 35 35 33 33 34 33 34 34 33 33 32 31 30 27 26 30 34 38 41 43 43 42 39 38 39 38 36 34 34 34 34 33 31 29 29 28 28 29 30 30 29 28 26 26 26 28 30 31 31 32 32 31 31 31 30 29 28 27 27 27 26 25 24 22 21 21 21 21
65 67 64 62 63 63 61 61 65 67 65 63 62 60 58 57 53 46 40 38 36 35 37 39 37 36 35 34 33 32 29 26 23 24 28 33 38 41 42 41 39 37 37 39 38 35 33 33 34 34 33 30 29 29 28 27 28 29 30 29 28 27 27 28 29 30 31 32 32 32 32 32 31 30 28 27 26 26 26 25 24 23 22 22 22 22 21
64 66 66 64 62 62 61 61 64 67 65 64 63 61 59 57 52 46 43 40 38 38 40 41 39 36 34 33 32 30 26 23 23 25 28 31 35 38 40 39 37 36 36 36 36 34 32 33 34 33 31 29 28 27 26 27 28 29 29 29 28 28 28 28 29 30 32 32 32 32 32 31 30 29 27 26 25 25 24 24 24 23 22 22 22 21 20
62 64 67 66 63 62 62 61 62 65 66 65 64 62 60 58 53 47 45 41 39 41 43 42 39 35 34 33 32 29 25 23 24 26 28 29 31 33 36 36 36 36 35 34 34 34 33 33 33 32 31 30 30 29 28 28 29 28 28 28 28 29 28 28 29 30 31 31 31 31 31 30 29 27 25 24 24 24 24 23 22 22 22 22 21 20 20
61 62 65 67 65 62 62 61 60 63 66 65 65 63 61 58 53 49 46 42 41 43 44 42 39 36 35 35 34 31 29 27 26 27 28 30 30 30 31 34 36 36 35 33 33 34 34 34 34 33 32 33 33 32 31 29 29 28 27 27 28 28 28 28 29 30 30 30 30 30 29 29 27 26 25 25 25 25 24 23 22 22 22 21 21 21 21
60 61 64 67 66 62 60 60 59 61 65 66 65 63 61 58 53 49 47 44 44 45 45 42 40 39 38 38 37 35 33 30 28 29 30 29 28 28 29 31 33 34 34 34 35 36 36 36 35 34 33 35 35 33 31 30 29 28 28 28 28 29 29 29 29 29 29 29 29 29 28 28 27 26 26 26 26 26 25 24 23 23 22 21 21 22 22
59 60 61 64 65 62 59 59 60 61 64 65 65 64 61 57 53 50 48 47 46 47 46 45 43 42 41 41 40 39 36 33 31 31 30 27 25 26 28 30 32 34 35 36 37 39 39 38 36 34 34 36 37 34 32 30 29 29 29 28 29 29 29 29 29 29 29 29 28 28 28 27 27 26 26 25 25 25 25 24 24 24 23 23 23 23 23
57 58 59 61 64 62 61 61 61 63 64 64 65 64 61 57 53 50 49 49 48 48 48 47 46 44 44 43 41 40 38 36 34 33 31 26 23 25 28 30 33 35 37 38 38 40 41 40 37 35 35 38 38 35 32 30 29 29 28 28 29 29 28 28 28 27 28 28 27 27 26 25 24 24 24 24 24 24 24 24 25 25 25 25 25 24 24
54 55 57 59 62 63 62 61 62 63 62 63 64 63 60 57 52 50 50 50 49 49 49 49 48 47 46 45 43 41 39 38 37 36 32 27 22 23 28 31 34 36 36 35 36 39 41 41 39 38 38 39 39 36 33 32 30 29 28 28 29 29 28 27 26 26 25 25 25 24 23 23 23 23 23 23 23 23 23 24 25 26 27 26 26 26 25
53 54 55 58 61 63 62 61 62 61 59 60 62 61 59 57 52 50 51 51 50 50 50 50 50 49 49 47 45 43 42 41 39 37 35 29 22 23 29 33 34 35 34 33 34 36 38 40 41 40 39 39 38 35 34 33 32 30 30 30 30 29 28 27 25 24 24 24 23 23 23 23 23 24 24 24 24 24 23 23 24 26 27 27 27 28 28
53 52 54 56 60 63 63 62 60 57 54 57 61 60 58 57 53 52 52 52 52 52 51 51 52 51 51 50 47 44 42 41 38 36 34 29 23 24 31 35 35 35 34 34 34 34 35 38 41 40 38 36 35 35 34 33 32 31 31 30 30 29 28 26 25 24 23 23 23 23 23 24 23 23 24 25 25 25 24 24 24 25 26 27 28 30 30
52 51 53 56 60 63 64 62 59 54 50 53 59 60 59 57 55 54 54 54 54 53 51 51 53 53 52 51 47 44 42 40 37 35 32 27 24 27 34 38 37 37 36 36 35 34 34 37 40 40 36 34 34 35 34 33 33 32 32 32 31 30 29 27 26 25 25 24 24 25 25 25 24 24 24 24 25 25 25 25 24 24 25 27 29 30 31
52 51 53 57 62 64 64 62 58 53 50 52 56 60 60 57 55 55 55 55 56 55 52 51 53 55 54 51 48 45 43 41 38 35 32 28 26 29 37 40 40 39 38 38 38 36 35 36 39 38 35 33 34 35 34 34 33 33 33 33 33 33 32 31 30 28 27 27 26 26 27 27 27 26 26 25 25 25 25 24 23 23 24 25 28 30 31
53 52 54 59 64 66 65 61 54 50 50 51 54 59 61 58 56 57 57 57 57 56 54 52 53 55 54 52 50 47 44 42 40 36 32 30 28 31 37 41 42 42 42 42 41 38 36 36 37 37 35 35 36 36 36 37 36 36 35 35 34 35 35 35 33 32 30 30 29 28 29 29 29 29 28 27 26 26 25 23 22 21 22 23 25 27 29
54 54 57 62 66 67 65 59 52 48 51 52 54 58 62 59 58 59 58 58 59 58 56 54 53 55 55 53 52 49 46 43 41 37 34 32 31 33 38 41 43 45 45 45 43 40 38 36 35 34 35 36 36 36 37 38 37 38 39 38 37 37 38 37 37 35 34 33 32 32 32 31 31 31 31 30 28 27 26 24 22 21 21 21 22 24 27
55 55 58 63 66 67 65 61 51 44 48 54 57 60 63 62 61 61 60 60 60 59 58 57 54 53 54 53 52 51 48 45 42 39 37 35 33 35 39 41 42 43 42 41 40 39 37 35 33 34 35 35 35 36 37 37 37 38 40 41 41 41 41 40 40 38 37 36 35 35 35 34 33 33 33 31 30 29 28 26 24 23 22 21 21 22 25
54 56 60 63 67 67 67 65 55 43 46 57 61 64 67 66 64 65 63 61 62 61 59 59 58 56 54 53 53 51 48 45 43 41 39 37 36 38 40 42 41 39 36 34 34 34 34 34 34 35 36 36 37 38 39 40 40 41 41 42 43 43 43 43 43 42 40 39 38 37 37 37 36 35 34 33 31 31 31 30 28 26 25 24 22 22 23
55 59 62 64 66 68 70 70 62 48 47 58 64 66 69 69 67 67 66 64 64 63 60 59 59 59 57 55 54 53 49 45 44 43 41 39 38 40 42 43 43 40 38 35 33 32 32 34 35 37 38 39 40 40 40 42 43 43 43 44 44 44 44 44 45 44 43 42 41 40 40 39 39 37 36 34 33 33 33 33 33 31 30 28 26 25 24
55 59 63 63 64 68 70 71 67 55 49 58 65 65 67 69 68 67 67 67 65 63 63 61 59 58 58 57 55 53 51 48 46 45 44 42 40 40 42 44 44 42 40 38 36 33 32 33 35 36 38 39 39 40 41 43 43 44 44 45 46 46 46 46 45 45 44 44 43 43 43 42 41 40 39 37 36 35 36 36 37 36 35 33 31 30 29
54 59 63 63 62 66 69 71 70 61 49 54 65 67 65 67 68 67 67 67 66 64 64 64 61 56 54 54 54 53 51 49 48 47 46 45 43 42 43 44 44 43 41 39 37 34 33 33 34 34 35 36 37 38 40 41 42 42 43 44 46 47 48 48 48 47 47 46 46 46 46 46 44 43 43 42 41 40 39 39 39 39 38 37 35 34 33
52 57 62 63 61 63 68 70 71 66 52 48 58 67 68 65 64 65 66 66 64 64 64 64 62 58 54 53 53 53 51 49 49 49 48 47 46 45 44 44 43 42 40 38 35 33 33 34 34 33 33 33 34 35 37 39 40 41 42 43 45 46 47 48 48 49 49 49 49 49 49 48 47 47 47 47 46 45 44 43 42 42 41 41 39 38 36
49 54 60 63 61 61 66 70 71 70 61 47 44 52 63 67 64 63 65 67 64 63 64 64 61 58 56 55 55 55 53 51 50 50 49 48 47 47 46 44 43 42 40 37 35 34 34 35 35 34 34 33 33 33 34 36 37 38 40 42 43 44 45 45 46 47 48 48 48 49 48 48 49 49 48 48 48 47 47 46 45 44 43 43 42 41 40
45 51 56 61 61 61 64 68 70 71 67 55 40 34 44 59 67 65 63 66 66 64 63 64 63 60 58 57 56 55 54 52 51 51 50 49 49 48 46 44 44 42 40 37 35 34 34 35 35 35 34 33 32 32 33 33 34 35 36 38 40 40 40 41 42 44 45 45 46 46 46 46 47 47 47 46 45 45 45 45 45 44 44 44 44 43 42
40 47 52 57 61 62 63 65 70 72 69 63 54 40 32 42 59 66 65 66 67 65 64 65 65 63 60 58 57 56 54 53 53 51 51 51 51 49 47 45 44 43 40 37 35 35 34 35 35 35 34 33 33 33 33 34 34 34 34 35 36 36 36 36 37 39 40 41 41 42 42 42 42 42 41 41 40 39 39 39 39 39 39 40 41 42 42
33 41 48 52 56 61 62 63 68 71 68 63 62 58 47 38 43 55 65 68 67 64 63 65 66 64 61 59 60 59 56 54 54 53 53 53 52 50 48 47 45 43 42 39 37 36 36 37 37 36 35 34 34 34 35 35 35 35 35 35 35 35 34 34 34 35 36 36 37 37 37 37 37 37 37 36 35 35 34 34 35 35 36 37 37 38 39
27 34 42 49 53 56 59 62 67 69 66 60 57 60 58 50 43 45 58 68 69 64 62 63 66 66 63 59 59 60 57 55 55 55 55 55 53 51 49 48 46 44 43 42 41 39 38 38 38 37 36 35 35 35 36 37 37 37 36 35 35 35 34 34 34 34 35 35 35 35 35 35 35 35 35 35 34 34 34 34 34 34 35 35 35 36 36
21 27 34 44 51 53 54 59 65 67 65 62 60 58 57 54 50 46 47 57 65 67 65 64 64 67 66 63 60 59 57 55 56 57 58 57 56 53 50 48 46 46 45 45 44 43 41 41 40 38 37 36 35 34 34 36 37 37 37 36 36 36 36 35 35 35 35 36 36 36 36 36 36 36 36 36 36 35 35 35 35 35 35 35 35 36 36
14 19 23 32 43 48 49 54 59 62 63 63 62 61 58 57 56 54 49 46 50 57 63 66 66 66 67 66 65 63 60 58 58 59 60 60 59 56 53 50 48 47 47 47 47 46 45 44 43 41 39 37 35 33 33 33 34 35 35 35 35 37 37 38 37 37 37 37 37 37 37 37 37 38 38 38 37 37 37 37 37 37 37 37 37 38 38
10 13 16 22 30 38 43 47 50 54 58 61 61 60 59 58 59 60 59 53 47 45 48 57 64 68 68 68 67 66 64 62 63 64 64 63 61 58 55 52 50 50 50 50 49 49 48 47 46 43 41 39 38 36 34 33 32 33 33 32 32 34 36 38 38 39 39 39 38 39 39 39 39 40 40 40 40 39 39 39 39 39 39 40 40 41 42
14 13 14 18 22 27 33 39 43 46 51 56 58 58 57 57 56 58 61 63 60 53 48 47 52 59 64 68 70 69 66 63 64 66 67 66 64 62 59 56 53 53 54 53 52 52 52 50 49 47 44 43 41 39 37 35 34 32 31 30 30 31 33 36 37 38 39 40 40 40 40 40 41 41 41 41 41 40 40 40 41 41 42 43 44 45 46
22 21 20 21 22 23 25 29 35 39 44 48 52 54 55 54 54 55 57 61 63 64 61 57 53 51 51 55 62 67 69 68 69 70 70 68 66 64 64 62 59 58 58 57 56 56 56 54 52 50 48 46 45 43 41 39 37 34 32 30 30 31 33 35 37 38 38 39 40 40 41 41 41 41 41 41 41 42 42 43 44 46 47 48 49 49 49
23 26 28 29 29 29 29 28 29 31 35 39 44 47 49 51 53 55 56 57 59 60 61 63 64 61 56 52 51 53 57 61 65 67 70 73 73 70 67 65 64 63 63 62 61 60 59 58 56 54 52 50 48 46 45 44 43 40 37 35 34 34 35 36 39 40 40 40 40 40 41 42 42 42 42 42 42 43 44 44 45 46 47 48 47 46 44
18 23 28 32 33 35 35 35 33 33 33 35 37 39 41 44 47 50 53 55 56 57 57 58 61 63 64 63 62 57 52 50 49 47 50 60 70 73 71 69 67 65 64 65 65 63 62 60 59 58 56 54 52 50 49 49 49 47 44 42 41 39 38 39 41 43 43 42 42 42 42 43 43 43 43 43 43 45 46 46 44 43 43 43 42 40 38
12 17 22 26 30 34 36 38 39 40 40 40 40 40 40 41 42 44 46 48 51 53 55 56 57 59 59 62 65 66 65 62 57 51 45 45 51 56 58 60 59 56 55 58 63 65 65 64 62 61 60 59 57 54 52 52 52 51 49 47 46 44 41 39 41 45 47 46 44 44 45 45 45 45 46 46 47 48 50 51 50 49 48 48 48 47 45
9 13 17 20 25 29 33 35 37 39 41 43 44 44 44 44 45 45 46 46 47 49 51 52 53 55 56 57 59 62 65 67 67 65 60 52 47 45 45 46 45 43 41 43 51 59 64 65 65 64 62 61 59 57 55 52 51 51 50 50 49 48 44 41 41 44 48 48 46 46 46 47 47 48 48 49 50 51 53 54 55 55 55 54 54 53 53
10 11 13 16 19 23 27 29 31 32 35 37 40 42 43 43 44 46 48 48 49 50 50 51 51 52 53 54 54 56 58 61 62 63 63 62 59 56 55 54 50 45 41 38 39 46 53 59 61 62 60 59 59 59 57 54 51 51 51 50 49 48 47 44 43 43 47 48 47 47 47 47 48 49 50 51 53 54 55 56 56 56 57 57 57 57 56
12 11 11 12 15 19 22 25 27 28 29 31 33 36 40 41 41 42 45 47 49 51 52 53 54 54 54 54 54 54 55 56 56 57 59 60 60 61 62 62 60 57 53 48 42 41 44 48 53 57 57 55 54 54 54 53 52 51 51 50 49 48 47 46 44 43 45 47 48 48 49 49 50 51 52 54 55 56 57 59 60 61 60 60 60 60 59
14 13 13 12 13 15 18 21 24 25 27 28 29 30 34 37 39 39 40 43 46 49 51 52 54 56 57 57 57 57 57 57 55 55 56 56 56 56 56 57 57 59 60 58 54 49 46 44 45 48 49 48 48 49 50 50 50 50 50 51 50 49 48 46 43 42 43 45 47 48 48 49 50 51 52 54 54 53 53 56 59 61 60 60 60 61 61
13 14 15 15 15 15 17 19 21 22 24 25 26 27 29 32 35 37 39 40 41 44 47 49 51 54 57 58 58 59 60 60 58 57 57 57 56 55 55 56 57 58 60 61 60 58 55 51 48 46 46 45 45 46 47 47 47 47 47 48 48 48 47 45 42 40 41 42 44 45 46 47 49 50 52 53 54 53 52 53 53 55 55 56 58 59 61
12 13 14 15 16 17 18 18 19 21 22 23 24 25 25 27 30 33 36 38 39 40 42 44 45 48 52 56 58 60 62 63 61 60 59 59 58 57 57 58 58 58 59 59 60 59 58 57 55 53 51 50 49 48 47 47 47 47 47 47 47 47 47 46 43 42 42 43 43 44 46 48 50 52 54 56 57 58 59 59 59 58 58 58 58 60 61
12 13 13 14 15 16 17 18 20 21 21 22 22 22 22 23 24 27 31 35 37 37 38 39 40 42 45 49 53 58 62 64 65 64 63 61 60 59 59 59 59 59 59 59 59 57 56 55 55 53 53 52 52 51 49 49 48 48 49 49 49 49 48 48 48 47 47 47 47 48 49 50 51 53 55 57 58 59 60 61 61 61 60 59 59 60 60
14 13 13 13 13 14 15 16 18 20 22 23 23 23 22 22 22 23 25 28 32 33 34 35 35 36 37 40 44 49 55 60 64 66 67 65 63 61 60 59 59 59 59 59 59 57 55 53 52 52 51 51 51 50 50 50 50 51 52 52 52 52 52 52 51 50 50 51 52 53 53 53 53 53 54 55 56 57 58 58 58 58 57 57 57 57 55
15 14 13 14 14 14 14 14 16 18 21 23 24 24 24 24 24 23 22 24 27 29 31 32 33 33 33 33 34 37 43 49 54 59 63 65 65 63 61 59 59 60 60 60 60 59 57 55 53 52 51 51 51 50 51 52 53 54 55 56 55 55 56 56 55 54 54 55 56 56 56 55 55 55 55 55 54 55 55 55 55 55 55 56 57 57 55
18 15 14 14 15 15 15 15 15 16 18 20 23 25 26 26 25 24 23 23 24 26 28 29 30 31 31 30 29 28 31 35 40 47 53 59 62 63 62 62 62 62 62 62 62 61 59 57 56 54 54 53 52 52 54 56 56 57 58 59 59 58 58 59 59 59 58 58 58 58 57 57 57 56 55 55 55 55 55 55 54 53 53 53 53 52 51
21 19 16 15 15 16 16 16 16 17 17 19 20 23 25 26 26 25 24 23 23 23 23 23 23 24 25 26 26 26 25 27 30 35 40 46 52 57 61 62 63 64 64 65 66 64 61 59 58 57 56 56 56 56 57 59 60 60 60 61 61 61 61 61 61 61 61 61 61 61 61 60 60 59 58 57 58 57 55 54 53 52 52 51 51 51 51
23 22 19 17 17 17 17 17 17 18 19 19 19 20 22 24 26 26 25 25 24 23 22 21 21 21 22 23 24 24 24 25 27 29 31 34 39 46 53 58 61 64 65 66 67 66 64 63 61 60 60 60 60 60 61 63 64 65 64 64 64 64 64 64 64 64 64 65 65 65 65 64 64 63 62 62 62 61 59 58 57 57 57 58 59 59 60
22 23 22 21 19 19 19 18 18 19 19 20 20 20 21 22 23 24 26 27 27 26 24 23 22 23 23 23 23 22 22 23 25 27 27 26 28 33 40 47 53 58 62 65 66 67 67 67 67 66 65 65 65 64 64 65 67 68 68 68 68 68 68 67 67 67 68 68 68 68 68 68 68 67 66 66 66 67 66 66 65 65 66 66 66 66 67
19 21 22 22 21 20 20 20 19 19 19 19 20 20 20 21 21 22 24 26 27 27 27 25 23 23 23 23 22 21 20 21 23 25 26 27 27 29 32 36 39 43 49 54 58 61 64 67 69 70 69 69 70 70 70 70 70 70 70 70 70 70 70 70 71 70 70 70 70 69 70 70 69 68 67 67 68 69 70 70 70 70 70 69 69 69 69
17 18 19 20 20 20 20 20 20 20 19 18 18 19 20 21 20 21 22 23 24 25 26 25 24 23 22 23 23 22 21 20 21 22 24 27 29 30 31 32 33 33 35 39 44 49 52 55 59 62 62 62 63 66 69 70 71 71 71 72 72 72 72 73 73 72 71 71 71 69 69 68 68 67 66 66 67 69 69 69 69 68 68 67 67 67 67
19 18 17 17 18 18 18 19 20 21 20 18 17 18 19 20 20 20 20 20 21 22 22 23 23 22 23 24 25 24 20 18 19 20 21 22 24 26 28 30 31 32 32 34 36 38 39 39 41 44 47 48 50 54 58 60 63 65 66 67 68 69 69 70 70 69 69 69 69 66 64 64 64 64 64 64 64 64 65 65 65 66 66 67 68 69 69
Wind_Direction
207 205 206 205 206 207 205 205 207 208 209 211 213 214 216 219 220 220 219 205 189 195 201 201 203 203 200 203 205 203 202 202 205 208 211 212 209 205 201 200 202 203 205 210 213 212 212 212 206 200 197 198 200 203 204 205 206 207 206 205 205 206 206 207 207 206 204 204 204 203 202 202 204 205 205 205 206 207 208 207 208 211 213 216 220 225 231
208 204 205 205 206 206 205 205 206 207 209 210 212 213 215 218 219 220 217 203 191 193 196 193 192 192 191 194 199 204 207 208 209 209 209 211 211 207 204 202 201 202 205 210 214 213 212 212 209 202 199 200 202 204 205 205 206 207 206 206 205 205 205 206 206 204 202 201 201 201 201 203 204 205 206 207 207 207 207 207 209 213 216 220 225 229 233
211 205 204 204 204 205 204 205 206 208 208 210 212 213 214 217 219 217 214 203 192 190 187 184 186 188 190 195 201 206 210 210 209 206 205 208 209 208 207 205 201 202 206 211 215 214 212 212 210 205 202 202 202 204 205 205 205 206 205 205 204 204 205 207 206 204 201 200 200 200 202 204 206 207 208 207 206 205 206 208 210 214 218 223 228 232 235
214 208 205 204 203 203 203 204 207 208 208 209 211 212 213 216 217 213 210 203 193 187 183 181 184 189 191 197 203 206 207 205 201 199 200 205 208 208 207 205 201 202 206 211 215 215 212 212 209 205 203 201 201 202 203 203 204 203 203 202 202 204 206 207 206 204 202 201 201 202 204 206 208 209 209 206 205 205 207 211 214 216 219 224 229 233 235
216 211 207 203 203 202 202 204 206 208 208 208 210 211 212 214 215 211 208 203 192 187 184 181 184 189 191 196 201 201 200 195 192 196 200 206 210 209 209 205 201 202 206 210 213 213 211 210 208 204 202 200 198 198 199 200 201 200 200 200 201 204 207 206 205 204 203 203 203 204 206 208 209 210 209 207 206 208 212 216 219 221 224 229 232 233 235
217 213 208 204 203 203 202 204 206 208 209 208 209 211 211 213 212 208 207 202 193 190 189 186 186 188 190 194 196 194 190 186 190 197 201 204 205 206 207 204 201 202 206 207 208 206 204 204 204 203 201 198 195 196 197 198 198 197 198 199 202 205 206 206 205 205 204 204 205 206 207 209 210 209 208 208 209 213 217 221 223 226 229 233 233 233 234
217 215 209 205 204 202 201 203 205 208 209 208 208 210 211 212 210 207 205 201 193 192 193 190 188 188 188 189 188 186 185 185 191 199 201 199 198 197 200 201 202 204 205 205 204 200 197 199 201 201 199 197 196 196 198 199 198 196 196 198 201 203 203 204 205 205 204 204 204 205 206 207 208 207 207 209 212 216 220 223 225 228 231 233 234 233 234
217 215 210 206 204 201 201 204 205 207 209 209 208 210 211 211 209 206 204 200 194 192 193 190 187 186 185 184 183 184 186 189 193 198 199 197 196 194 194 198 202 204 204 203 201 197 195 198 201 201 199 197 196 197 198 199 199 197 196 197 200 201 200 201 202 202 202 201 201 203 204 205 207 207 208 211 215 218 221 223 225 228 231 234 235 235 234
216 214 211 206 204 202 201 204 205 207 209 208 208 209 210 210 209 205 202 200 195 192 191 189 186 185 183 181 181 184 188 192 195 196 195 195 197 197 194 195 198 200 202 202 200 197 196 198 201 202 200 198 198 198 198 200 200 199 197 197 199 200 199 199 199 199 199 199 200 202 205 206 208 210 212 215 219 221 223 224 225 227 229 231 233 235 235
215 214 211 207 204 202 201 203 205 207 208 208 208 210 210 209 208 205 201 200 196 192 191 188 186 185 183 180 182 186 190 194 197 197 194 193 196 200 198 196 196 197 199 202 202 201 201 200 202 203 201 200 199 199 198 200 202 201 199 198 199 198 198 199 198 198 198 199 201 204 206 208 209 211 213 216 220 222 223 224 225 226 228 229 231 234 235
214 213 211 207 203 201 201 203 205 206 208 209 208 210 210 208 206 204 201 199 197 192 191 190 187 186 186 184 185 188 191 196 199 200 198 195 196 201 202 198 195 196 199 203 205 207 207 204 203 204 203 202 200 199 199 199 201 199 196 195 196 196 197 198 197 196 197 198 200 202 204 206 207 209 212 215 218 221 222 225 226 227 229 229 230 233 235
212 211 210 206 201 199 200 204 206 207 209 210 210 210 211 208 205 203 200 199 196 193 191 191 190 190 190 189 189 192 195 197 199 201 201 199 200 204 204 201 195 194 199 204 207 210 210 206 204 204 205 204 202 200 200 199 197 195 192 192 193 194 195 196 194 193 194 196 199 201 203 206 209 212 215 217 221 223 225 228 230 231 232 231 231 233 235
211 210 208 203 199 198 200 204 206 206 209 212 211 210 211 207 204 203 201 199 197 194 192 193 193 193 194 193 193 196 199 199 200 202 202 203 205 204 203 203 197 193 197 202 206 210 209 205 204 205 206 206 204 203 202 199 195 193 192 192 193 193 195 196 195 195 198 201 204 207 209 212 216 219 222 224 227 229 231 233 235 237 237 236 235 235 236
209 209 206 201 198 197 199 203 205 205 210 214 211 209 210 207 204 203 202 200 198 196 194 195 195 196 197 196 195 198 201 202 204 205 205 207 208 203 201 201 196 192 196 201 205 210 209 204 205 206 206 207 207 205 204 200 196 194 193 192 193 195 197 198 199 200 203 207 212 215 217 220 221 224 227 229 231 234 236 238 240 241 242 241 239 238 238
206 206 203 200 197 197 199 202 204 205 211 213 210 208 209 207 205 205 204 202 200 198 196 197 198 198 199 198 197 200 204 206 207 207 207 208 206 201 200 198 193 192 197 203 208 212 211 208 207 207 206 207 208 208 206 203 199 197 196 195 196 197 198 200 203 206 208 212 216 220 223 225 226 228 230 232 233 235 238 241 246 248 248 247 244 241 240
202 202 201 198 196 197 198 200 203 208 212 211 207 207 208 207 205 206 206 204 202 200 199 199 200 201 201 200 201 203 205 208 209 209 207 205 201 199 199 197 193 194 199 206 210 213 214 213 211 208 207 209 210 210 210 207 203 200 199 200 201 200 200 202 207 211 214 217 220 223 226 228 230 232 234 234 235 236 238 242 248 253 254 253 250 245 242
200 200 199 197 195 196 197 197 199 206 210 209 206 205 206 206 205 206 206 205 203 202 201 201 201 202 203 203 203 205 206 208 211 210 205 200 199 199 199 198 197 199 202 207 211 214 216 217 215 210 210 213 214 214 216 216 211 206 203 203 204 205 205 207 210 213 215 218 222 225 228 230 232 234 236 237 238 239 240 241 246 251 254 255 254 249 243
199 198 198 196 195 196 196 196 197 199 201 204 205 204 204 204 205 206 207 206 204 203 203 202 202 203 204 204 204 205 207 208 209 208 202 198 199 200 200 200 202 203 205 208 211 213 216 217 214 211 212 214 214 216 218 220 220 216 211 209 209 210 210 211 213 215 216 219 222 225 228 231 233 236 237 238 239 240 240 241 243 247 252 254 254 250 245
198 197 198 198 197 197 197 198 202 203 197 197 201 203 204 204 204 205 206 206 205 205 204 203 203 203 204 205 204 204 204 205 206 204 199 197 200 201 201 202 205 206 206 208 209 210 211 211 209 210 211 212 213 215 216 218 220 220 219 217 216 216 216 216 216 217 216 219 223 226 228 231 233 235 237 239 241 241 241 243 243 244 248 251 251 250 247
199 197 199 201 200 199 198 200 206 209 200 195 198 202 204 205 203 203 205 206 207 207 206 205 205 204 204 204 204 203 202 201 202 201 198 197 199 200 201 203 206 208 210 211 212 211 210 209 209 210 211 212 213 215 217 219 221 221 222 223 222 223 223 223 222 221 219 220 222 225 228 231 232 233 235 238 241 242 242 244 244 244 245 246 247 248 247
201 200 202 203 202 202 201 203 208 212 204 196 197 200 204 206 204 203 203 205 207 209 209 209 208 207 206 205 204 203 201 199 199 198 197 197 198 199 201 202 205 208 211 213 214 214 214 213 211 211 212 213 214 216 217 220 222 223 224 225 226 227 228 228 228 226 224 224 225 227 229 230 231 231 232 234 237 240 242 243 245 246 246 245 245 246 245
203 203 204 205 205 204 204 206 211 214 206 194 194 199 205 206 204 202 203 205 207 208 210 210 209 209 209 209 207 204 200 198 198 197 196 198 199 198 200 201 203 206 208 210 213 216 216 215 213 212 212 213 214 216 218 220 222 223 224 225 226 228 229 230 230 229 228 228 229 229 231 231 231 231 232 232 233 235 238 240 243 245 247 247 247 247 247
204 206 206 206 207 207 207 208 212 216 213 198 192 198 206 207 204 203 205 206 206 208 211 212 209 208 211 212 211 208 203 199 199 198 198 200 200 200 201 202 203 206 208 211 215 217 217 217 215 214 214 213 213 214 216 218 220 222 223 225 226 228 230 231 232 233 232 232 232 232 233 234 234 234 234 235 236 237 237 238 240 242 245 247 249 250 250
204 208 208 208 210 210 209 210 212 217 218 210 196 196 203 206 205 205 206 207 207 208 211 212 209 208 211 211 210 209 205 202 201 200 199 200 202 202 203 205 207 210 212 215 218 219 218 218 218 217 216 215 213 213 214 217 219 222 224 226 227 228 230 232 233 235 236 236 237 237 238 238 239 240 241 242 243 244 244 245 245 246 246 248 249 250 251
204 209 210 211 212 212 212 212 214 217 219 219 211 200 201 204 206 206 207 208 208 209 211 212 210 210 211 209 208 209 207 204 202 202 201 202 203 203 205 208 210 213 216 218 221 221 219 219 219 220 219 217 215 215 215 216 219 221 224 226 227 228 229 231 232 234 236 237 239 240 241 241 242 244 246 247 247 247 248 249 251 251 251 251 252 252 253
205 211 213 214 216 216 215 214 215 218 221 223 222 221 213 205 204 206 208 209 209 209 212 213 211 211 212 211 209 210 210 206 204 204 203 203 205 206 208 210 212 215 218 221 222 222 222 221 222 222 222 221 220 220 218 218 218 220 222 224 226 226 227 228 230 232 234 236 238 239 240 241 242 243 244 245 245 245 246 248 250 252 252 253 253 254 254
208 213 216 217 219 220 220 218 218 220 224 227 228 229 229 220 211 208 208 210 211 210 212 215 214 212 213 213 210 211 213 211 207 206 206 207 207 209 211 213 216 219 221 223 224 224 224 224 225 225 226 226 227 226 224 221 221 221 222 224 225 226 226 227 229 231 233 235 237 238 239 240 241 241 242 243 243 244 245 247 249 251 251 252 253 254 255
208 216 220 221 223 225 225 223 222 224 227 229 230 232 233 234 232 221 210 209 211 211 211 214 215 214 214 214 211 209 211 212 209 207 208 210 212 213 214 216 219 222 224 225 226 227 227 227 228 229 230 232 234 233 231 229 227 226 226 227 228 228 229 230 231 232 234 236 238 239 240 241 242 243 244 245 246 247 248 249 250 251 252 253 253 254 256
207 215 222 225 227 230 231 228 226 228 231 231 231 233 235 236 239 235 219 210 210 212 212 212 214 215 215 216 214 210 208 210 211 210 210 212 215 216 217 218 220 223 225 227 228 230 231 231 231 232 234 235 237 238 238 236 233 231 230 231 232 232 233 234 234 234 235 236 238 240 241 242 244 245 246 247 248 249 250 251 251 252 253 253 254 255 256
211 215 223 227 230 233 235 233 231 233 234 235 234 235 236 236 238 240 236 224 215 213 212 211 212 215 216 217 218 216 213 212 214 214 213 215 217 218 219 221 222 223 225 227 229 232 234 234 234 234 236 236 237 238 239 238 237 236 235 234 235 235 236 237 237 237 237 237 238 239 241 243 244 246 247 248 249 250 251 251 252 253 253 254 254 254 254
225 221 224 228 232 236 238 238 237 237 237 238 239 240 239 239 240 241 243 240 234 226 218 211 211 215 217 218 219 221 219 215 214 215 217 219 220 221 221 223 224 224 224 226 229 232 235 236 236 236 235 235 235 237 237 236 235 236 237 238 239 239 239 238 238 239 239 239 239 240 241 243 245 246 247 248 250 251 252 253 254 255 255 255 255 254 254
242 238 236 235 236 240 243 243 243 242 240 240 242 243 244 245 245 244 245 246 245 243 238 227 217 215 215 216 218 221 222 218 215 216 218 219 221 223 225 226 227 227 225 226 229 232 236 238 238 237 236 234 234 237 238 234 232 234 237 239 242 244 244 243 241 240 240 240 240 241 242 243 244 246 247 249 251 252 253 254 255 255 255 255 254 253 253
241 241 244 247 245 245 247 247 248 248 246 245 245 247 248 249 249 249 248 249 249 248 249 247 239 231 223 218 217 218 220 220 218 219 220 220 221 223 226 229 230 228 226 227 229 232 236 239 239 238 237 235 235 238 239 235 232 235 241 245 247 250 251 250 247 245 244 243 243 243 243 244 245 246 247 249 250 252 253 254 254 255 255 255 254 253 254
234 238 244 250 251 250 250 250 250 251 251 250 250 252 253 253 253 252 251 250 250 250 250 251 250 249 247 242 234 225 219 215 214 215 218 221 222 222 224 227 229 229 227 228 229 231 234 237 239 239 238 237 236 238 238 235 233 237 244 250 253 255 258 257 253 250 248 247 247 246 246 246 247 248 249 249 250 251 253 254 254 254 255 255 256 257 258
230 236 242 246 248 249 249 250 250 252 253 254 255 256 257 257 257 257 256 255 253 252 252 252 252 252 253 254 253 247 237 226 219 217 218 220 220 219 220 221 222 224 226 228 230 232 234 235 237 238 239 239 239 239 238 237 236 239 244 249 253 256 260 261 257 253 251 249 248 249 249 249 249 250 251 252 252 253 254 256 256 256 257 258 259 260 261
233 236 238 240 243 246 248 250 252 253 253 254 256 257 259 260 261 260 260 259 258 258 257 256 255 254 254 254 255 255 253 249 245 243 239 229 220 217 216 215 215 217 220 223 226 229 232 234 236 238 240 242 242 241 239 238 239 241 245 248 250 253 260 264 261 254 251 251 250 250 251 251 251 252 253 254 254 255 256 257 259 259 259 260 260 260 260
245 242 240 240 242 244 246 247 250 251 252 252 254 256 259 261 261 261 261 261 260 260 260 260 259 259 258 258 257 257 258 258 257 257 256 250 239 229 225 223 221 220 220 221 222 224 227 231 234 236 237 239 241 241 241 241 241 242 245 248 250 253 259 267 266 256 249 249 250 251 252 253 254 254 255 256 256 257 257 258 260 261 262 263 263 263 262
252 244 242 242 242 243 245 246 247 248 249 249 251 254 257 258 258 259 259 260 259 259 259 259 260 261 261 262 262 261 260 260 260 261 261 260 256 251 250 250 248 244 241 237 231 226 224 227 230 233 235 237 239 241 242 243 245 246 248 251 254 255 260 268 269 258 248 245 247 249 250 252 254 255 256 257 257 257 258 259 261 262 263 264 265 266 266
277 263 253 246 241 241 244 246 246 246 246 246 247 250 253 255 256 256 257 258 258 259 258 258 258 258 259 260 261 262 262 261 261 260 260 261 260 260 261 263 264 263 260 256 249 239 232 229 230 232 235 237 239 241 243 246 249 250 251 254 257 260 263 266 265 256 248 245 245 246 248 250 252 253 255 255 256 258 260 260 260 261 262 264 265 267 268
299 287 276 265 252 242 239 241 244 244 244 243 243 245 248 251 252 253 254 255 257 258 259 258 258 257 257 257 257 259 261 261 261 261 261 260 260 261 263 265 268 270 269 265 260 255 249 243 238 237 239 241 243 245 248 250 252 253 254 256 259 261 262 261 256 251 247 247 247 248 249 251 252 253 255 257 259 261 263 263 261 259 260 262 265 267 268
297 290 281 273 265 255 245 239 239 241 242 244 245 247 249 251 252 252 252 253 254 256 257 258 258 258 257 256 255 255 256 258 258 259 260 261 261 263 264 266 268 270 271 270 268 266 263 259 254 250 249 248 249 251 253 255 256 257 258 259 259 258 255 252 248 245 245 246 248 250 252 253 255 256 258 261 264 265 267 268 266 263 262 265 268 269 270
293 288 281 273 267 262 256 248 244 242 243 245 249 252 254 256 257 257 255 253 253 254 255 257 258 257 257 256 256 255 254 255 255 255 256 257 259 261 263 265 266 268 269 269 270 269 269 267 264 261 258 256 256 257 259 260 260 260 259 257 253 249 245 243 241 240 242 246 251 256 259 261 263 264 265 266 268 268 269 270 271 270 270 271 271 271 272
298 292 285 278 271 266 262 257 251 248 246 246 248 252 256 259 260 259 256 253 251 251 252 254 257 258 257 255 255 254 254 253 253 253 253 254 255 256 258 260 262 264 265 266 267 267 267 267 266 265 263 260 260 260 261 261 261 259 256 250 244 239 238 239 240 242 247 253 261 267 270 271 272 271 271 271 271 271 271 271 271 271 272 272 271 271 270
301 298 292 285 279 272 267 261 255 252 249 248 248 250 256 260 262 261 257 252 249 249 250 252 256 259 258 255 252 251 251 250 250 251 251 251 250 250 252 254 256 258 260 262 264 264 263 263 263 263 262 261 260 260 259 258 258 256 251 244 239 236 237 240 245 250 257 263 268 272 275 277 277 277 276 275 274 273 272 271 270 269 269 269 268 266 265
296 296 294 290 283 277 272 268 262 255 251 250 248 249 251 256 260 262 260 255 251 251 252 254 256 259 261 258 253 250 248 248 247 247 247 246 245 244 245 246 249 251 255 258 260 261 261 260 259 259 258 259 258 257 255 253 252 250 246 242 240 239 241 245 251 257 264 269 273 276 278 280 281 281 280 279 278 276 273 271 269 268 267 265 263 262 261
289 288 289 288 283 277 272 268 265 260 254 250 249 247 247 248 251 254 256 256 254 254 254 256 258 260 261 261 259 254 250 247 246 245 245 244 242 240 239 240 242 245 249 252 255 257 257 258 257 256 255 255 254 253 251 249 247 245 243 243 243 244 248 252 257 262 267 272 275 278 279 281 281 281 280 279 277 275 272 268 265 262 259 257 257 259 261
283 281 279 278 277 273 269 265 262 259 254 249 246 245 243 242 242 244 246 248 250 251 253 256 258 260 261 262 262 258 252 247 246 246 246 244 241 238 236 236 237 240 243 246 249 252 253 253 253 253 253 252 251 250 248 246 245 244 243 244 246 250 255 259 262 265 269 272 275 277 278 279 279 278 276 275 273 271 269 265 261 258 257 258 261 264 267
280 277 274 271 269 268 266 262 258 255 252 248 245 242 240 238 236 237 239 241 242 245 249 252 256 259 260 261 261 259 253 248 246 247 247 245 241 238 236 235 235 237 239 242 245 247 247 247 247 248 249 249 249 248 246 245 245 245 245 246 249 253 257 260 263 266 269 271 273 274 275 276 276 275 272 270 268 266 264 263 262 263 264 267 269 271 273
278 276 272 269 266 264 264 261 256 252 250 248 245 243 242 240 238 237 237 239 240 242 244 247 252 256 258 258 259 257 253 247 244 245 245 241 237 236 237 237 236 236 238 240 241 243 243 243 243 244 245 246 247 248 247 246 246 246 247 249 252 255 257 259 262 264 266 268 269 271 272 273 273 272 270 268 265 264 263 264 264 265 267 269 271 273 276
280 277 274 269 265 262 261 260 257 252 248 248 248 246 245 245 244 243 241 240 241 242 242 244 248 253 254 253 251 249 247 245 243 244 242 235 226 224 229 235 238 238 239 240 241 242 243 243 243 244 245 246 247 247 247 248 248 249 250 251 253 256 258 260 261 263 264 265 267 268 270 270 270 270 269 267 265 265 266 267 268 270 271 273 274 276 278
284 281 277 273 268 263 259 258 257 254 248 247 249 249 247 247 248 249 247 245 244 244 244 246 248 251 250 246 242 241 243 244 245 245 243 235 223 217 220 227 231 233 235 235 237 240 243 244 245 246 247 247 247 247 247 248 249 249 250 251 253 255 257 258 260 261 263 264 266 266 266 266 266 267 267 266 266 266 268 269 271 273 275 277 278 279 281
283 283 280 277 273 268 261 257 257 255 251 247 246 248 250 250 250 249 248 247 247 247 246 247 247 247 246 242 238 237 239 241 243 244 241 231 219 217 221 225 226 228 230 230 232 236 241 243 246 249 249 248 247 246 246 247 248 249 249 250 251 253 254 256 257 258 260 261 262 262 262 262 262 263 264 265 265 266 267 269 271 273 275 277 280 281 283
Height
5691 5697 5702 5706 5710 5716 5722 5727 5733 5738 5742 5745 5750 5756 5761 5764 5767 5770 5778 5787 5793 5795 5797 5799 5801 5805 5808 5811 5814 5817 5820 5823 5825 5828 5830 5832 5834 5837 5839 5842 5846 5849 5853 5856 5858 5861 5863 5865 5867 5868 5870 5871 5873 5875 5877 5879 5881 5884 5886 5888 5890 5892 5894 5897 5898 5900 5901 5903 5905 5907 5909 5911 5914 5916 5918 5920 5921 5923 5925 5927 5929 5930 5931 5933 5934 5935 5936
5685 5693 5698 5702 5706 5712 5719 5724 5729 5733 5737 5742 5747 5753 5758 5761 5764 5770 5779 5787 5791 5792 5794 5796 5798 5801 5804 5808 5811 5813 5816 5819 5821 5824 5827 5829 5831 5833 5835 5838 5842 5846 5849 5853 5856 5858 5861 5863 5865 5866 5868 5869 5871 5874 5875 5878 5880 5881 5884 5886 5888 5890 5892 5894 5896 5897 5899 5901 5903 5905 5907 5909 5912 5914 5916 5918 5919 5921 5923 5925 5926 5928 5929 5931 5932 5933 5934
5680 5689 5695 5698 5702 5709 5715 5720 5724 5728 5734 5739 5744 5750 5755 5757 5761 5770 5779 5786 5788 5789 5790 5792 5795 5798 5801 5805 5807 5810 5813 5815 5818 5821 5824 5826 5828 5830 5833 5835 5839 5843 5846 5849 5852 5855 5858 5861 5863 5865 5866 5868 5870 5872 5874 5876 5878 5880 5882 5884 5886 5888 5890 5891 5892 5894 5897 5899 5901 5903 5905 5907 5909 5911 5913 5915 5917 5919 5921 5923 5924 5926 5928 5929 5930 5931 5932
5674 5684 5690 5694 5699 5705 5711 5715 5719 5724 5730 5736 5740 5746 5751 5754 5760 5769 5776 5781 5785 5787 5787 5789 5792 5795 5799 5802 5805 5808 5810 5813 5816 5819 5821 5823 5825 5827 5830 5833 5836 5839 5843 5846 5850 5853 5856 5858 5861 5863 5865 5866 5868 5870 5872 5874 5876 5878 5880 5882 5884 5886 5887 5888 5890 5893 5895 5897 5899 5901 5903 5905 5907 5909 5911 5913 5916 5918 5919 5921 5922 5924 5926 5927 5928 5929 5931
5668 5678 5685 5691 5695 5700 5705 5709 5714 5720 5726 5732 5737 5743 5747 5751 5758 5767 5772 5777 5783 5784 5785 5787 5790 5793 5796 5800 5803 5806 5809 5812 5815 5817 5819 5821 5823 5826 5828 5830 5833 5837 5841 5844 5848 5851 5854 5857 5859 5861 5863 5865 5867 5869 5871 5872 5873 5875 5877 5879 5881 5883 5884 5886 5889 5891 5893 5895 5897 5899 5901 5903 5905 5907 5910 5912 5915 5916 5918 5919 5921 5922 5924 5925 5926 5928 5929
5664 5672 5680 5687 5691 5694 5700 5705 5711 5717 5723 5729 5734 5739 5744 5748 5755 5763 5768 5774 5779 5782 5783 5786 5788 5791 5795 5798 5801 5804 5808 5811 5814 5816 5818 5819 5821 5823 5826 5829 5832 5835 5839 5842 5845 5849 5852 5855 5858 5859 5861 5863 5864 5866 5868 5869 5871 5873 5875 5876 5878 5880 5882 5885 5887 5889 5891 5894 5896 5898 5900 5902 5904 5907 5909 5911 5913 5915 5916 5918 5919 5921 5922 5923 5924 5926 5927
5660 5667 5675 5682 5686 5691 5698 5703 5709 5714 5720 5725 5731 5735 5740 5746 5752 5759 5765 5771 5776 5778 5780 5784 5787 5790 5793 5796 5800 5803 5806 5810 5812 5814 5816 5817 5819 5821 5824 5827 5831 5834 5837 5840 5843 5846 5849 5852 5854 5856 5857 5859 5861 5863 5864 5866 5869 5870 5872 5874 5876 5878 5880 5883 5885 5887 5890 5892 5894 5896 5899 5901 5903 5906 5908 5910 5911 5913 5915 5916 5918 5919 5920 5921 5922 5924 5925
5656 5663 5669 5677 5683 5690 5696 5700 5706 5711 5716 5722 5727 5732 5737 5743 5750 5756 5762 5767 5772 5775 5778 5782 5786 5789 5791 5794 5798 5801 5805 5808 5810 5812 5814 5816 5817 5819 5822 5825 5829 5832 5836 5838 5841 5844 5847 5849 5851 5853 5855 5857 5858 5860 5862 5864 5867 5868 5870 5872 5873 5876 5878 5881 5883 5886 5888 5890 5892 5895 5897 5899 5902 5904 5906 5908 5909 5911 5912 5914 5916 5917 5919 5920 5920 5921 5922
5652 5659 5667 5675 5683 5688 5693 5697 5702 5707 5712 5718 5724 5729 5734 5740 5747 5753 5758 5763 5768 5771 5775 5780 5784 5787 5789 5792 5795 5799 5802 5805 5808 5811 5813 5814 5816 5818 5820 5823 5827 5830 5833 5836 5838 5842 5844 5847 5849 5851 5853 5855 5856 5858 5860 5863 5865 5867 5869 5871 5872 5874 5877 5879 5881 5884 5886 5889 5891 5893 5895 5898 5900 5902 5904 5906 5907 5909 5910 5912 5914 5915 5916 5917 5918 5919 5920
5649 5657 5664 5672 5679 5685 5690 5694 5699 5704 5710 5716 5721 5725 5731 5737 5743 5749 5754 5759 5764 5768 5772 5777 5781 5784 5787 5789 5792 5796 5799 5802 5806 5809 5811 5813 5815 5817 5818 5821 5824 5827 5830 5833 5836 5839 5841 5844 5847 5849 5851 5853 5854 5857 5859 5862 5864 5866 5868 5870 5872 5874 5876 5878 5880 5883 5885 5887 5890 5892 5894 5896 5898 5900 5902 5903 5905 5906 5908 5910 5911 5912 5913 5914 5916 5917 5918
5647 5654 5661 5668 5675 5682 5687 5692 5696 5701 5707 5713 5718 5723 5728 5734 5741 5747 5751 5756 5761 5765 5770 5774 5778 5781 5784 5787 5790 5793 5796 5800 5803 5806 5809 5812 5814 5815 5817 5819 5822 5825 5828 5831 5833 5836 5838 5841 5844 5846 5848 5850 5852 5855 5858 5860 5862 5865 5867 5869 5871 5873 5875 5877 5879 5882 5884 5886 5888 5890 5893 5895 5896 5898 5900 5901 5902 5904 5906 5907 5908 5909 5910 5912 5913 5914 5916
5645 5651 5658 5665 5673 5679 5685 5689 5693 5698 5705 5710 5716 5720 5725 5731 5738 5743 5748 5752 5757 5762 5767 5771 5775 5778 5781 5784 5787 5790 5794 5797 5800 5804 5807 5810 5812 5815 5816 5818 5820 5823 5826 5829 5831 5833 5835 5838 5841 5843 5845 5848 5851 5854 5856 5858 5861 5863 5866 5867 5869 5871 5873 5876 5878 5880 5883 5885 5887 5889 5891 5892 5894 5896 5897 5899 5900 5902 5903 5905 5906 5907 5908 5910 5911 5912 5913
5642 5649 5656 5663 5671 5677 5682 5686 5690 5697 5703 5708 5713 5717 5722 5728 5735 5739 5744 5748 5753 5758 5763 5767 5771 5775 5777 5781 5784 5788 5791 5795 5798 5801 5804 5807 5810 5813 5815 5817 5819 5822 5824 5827 5829 5831 5833 5836 5839 5841 5844 5847 5850 5853 5855 5858 5860 5863 5865 5867 5869 5871 5873 5875 5877 5880 5882 5884 5885 5887 5889 5890 5892 5894 5895 5896 5898 5899 5901 5902 5903 5904 5906 5907 5908 5909 5910
5641 5648 5655 5662 5668 5674 5679 5683 5689 5696 5701 5704 5710 5715 5719 5725 5731 5735 5740 5744 5749 5754 5759 5764 5768 5771 5774 5778 5782 5785 5789 5792 5795 5798 5802 5805 5808 5810 5813 5815 5818 5821 5823 5825 5827 5829 5832 5835 5837 5840 5843 5846 5849 5851 5854 5857 5860 5862 5864 5866 5868 5870 5872 5874 5876 5878 5880 5882 5884 5885 5887 5888 5890 5892 5893 5894 5896 5897 5898 5899 5901 5902 5903 5904 5905 5906 5907
5640 5646 5653 5659 5665 5670 5676 5681 5687 5693 5697 5700 5707 5713 5716 5722 5728 5732 5736 5741 5745 5750 5755 5760 5764 5767 5771 5775 5779 5783 5786 5789 5792 5796 5799 5802 5805 5808 5811 5814 5816 5819 5822 5823 5825 5828 5830 5833 5835 5838 5842 5845 5847 5850 5853 5855 5858 5860 5862 5864 5866 5868 5870 5872 5874 5876 5878 5879 5881 5883 5884 5886 5888 5889 5890 5892 5893 5895 5896 5897 5898 5899 5900 5901 5902 5903 5904
5637 5644 5650 5655 5661 5667 5674 5679 5685 5691 5693 5697 5703 5708 5712 5719 5724 5728 5733 5737 5742 5747 5751 5755 5759 5763 5767 5772 5776 5779 5783 5786 5789 5793 5796 5800 5803 5805 5809 5812 5815 5817 5819 5821 5824 5826 5829 5831 5834 5837 5841 5843 5845 5848 5850 5852 5854 5857 5860 5862 5864 5866 5868 5870 5871 5873 5875 5876 5878 5880 5881 5883 5885 5886 5887 5889 5891 5892 5893 5895 5896 5896 5897 5897 5898 5899 5901
5635 5640 5646 5652 5659 5665 5671 5677 5683 5688 5690 5694 5699 5703 5708 5714 5720 5724 5728 5733 5738 5742 5746 5750 5755 5759 5763 5768 5772 5776 5780 5783 5786 5790 5794 5797 5800 5803 5806 5809 5812 5814 5817 5819 5822 5825 5828 5830 5833 5836 5838 5841 5843 5846 5847 5849 5851 5854 5856 5858 5861 5863 5865 5867 5869 5870 5872 5874 5875 5877 5878 5879 5881 5883 5884 5886 5888 5889 5891 5892 5893 5894 5894 5895 5895 5896 5897
5633 5639 5646 5652 5658 5664 5669 5675 5679 5682 5685 5690 5695 5699 5703 5708 5714 5719 5723 5728 5733 5737 5740 5744 5749 5754 5758 5763 5767 5772 5776 5779 5783 5787 5791 5794 5797 5800 5804 5807 5809 5812 5815 5818 5821 5824 5826 5828 5832 5834 5836 5838 5841 5843 5845 5847 5849 5851 5852 5855 5857 5859 5861 5863 5865 5867 5869 5871 5872 5873 5875 5876 5878 5880 5881 5883 5885 5886 5888 5889 5890 5891 5892 5892 5893 5893 5894
5632 5639 5644 5650 5655 5661 5666 5670 5673 5676 5680 5685 5689 5693 5697 5701 5707 5712 5717 5723 5727 5731 5734 5737 5742 5747 5753 5758 5763 5767 5772 5776 5780 5784 5787 5790 5793 5797 5800 5804 5806 5809 5812 5815 5818 5821 5824 5826 5829 5831 5833 5836 5838 5840 5842 5844 5845 5847 5850 5852 5854 5856 5858 5859 5861 5863 5865 5867 5869 5870 5872 5873 5875 5877 5878 5879 5881 5882 5884 5885 5887 5888 5889 5890 5890 5891 5891
5631 5636 5640 5646 5652 5657 5662 5665 5667 5672 5677 5681 5684 5688 5691 5694 5700 5706 5711 5717 5722 5727 5731 5733 5736 5741 5746 5752 5758 5762 5767 5771 5776 5780 5783 5787 5790 5793 5796 5800 5803 5806 5809 5812 5815 5818 5820 5823 5825 5828 5830 5832 5834 5836 5838 5840 5842 5844 5846 5848 5850 5852 5854 5856 5857 5859 5861 5863 5865 5867 5868 5870 5872 5873 5875 5876 5877 5879 5880 5881 5882 5884 5885 5886 5887 5887 5888
5630 5634 5638 5643 5649 5655 5660 5663 5665 5669 5675 5679 5682 5686 5687 5690 5695 5702 5707 5712 5717 5723 5728 5731 5733 5737 5742 5747 5752 5757 5761 5766 5770 5775 5779 5783 5786 5790 5793 5797 5800 5803 5806 5809 5811 5814 5817 5819 5822 5824 5826 5829 5831 5833 5834 5836 5838 5841 5843 5845 5847 5849 5850 5852 5854 5856 5857 5859 5861 5863 5865 5866 5868 5870 5871 5873 5874 5875 5876 5877 5878 5879 5881 5882 5883 5883 5883
5630 5633 5636 5641 5647 5653 5657 5660 5662 5667 5672 5676 5679 5683 5685 5687 5692 5699 5703 5707 5712 5719 5724 5727 5730 5735 5740 5745 5750 5754 5757 5761 5766 5770 5774 5778 5782 5786 5790 5793 5796 5799 5802 5805 5808 5810 5813 5815 5818 5820 5823 5825 5827 5829 5831 5832 5835 5837 5839 5841 5842 5844 5846 5848 5850 5852 5854 5856 5857 5859 5861 5862 5864 5865 5867 5868 5870 5871 5872 5873 5874 5875 5876 5877 5878 5879 5879
5630 5632 5635 5640 5646 5650 5654 5658 5661 5664 5669 5672 5676 5679 5682 5685 5691 5697 5701 5704 5710 5716 5721 5724 5727 5732 5737 5741 5747 5752 5755 5758 5762 5766 5770 5774 5778 5782 5786 5789 5792 5795 5798 5801 5804 5806 5809 5811 5814 5817 5819 5821 5823 5825 5827 5829 5831 5833 5834 5836 5838 5840 5842 5844 5846 5848 5850 5851 5853 5855 5857 5858 5860 5861 5862 5864 5865 5866 5867 5868 5870 5871 5872 5872 5873 5874 5875
5630 5632 5636 5640 5644 5648 5652 5656 5659 5661 5665 5669 5673 5677 5680 5684 5690 5695 5699 5703 5708 5713 5718 5721 5725 5729 5731 5735 5741 5747 5751 5755 5759 5763 5766 5770 5774 5778 5781 5785 5788 5791 5795 5797 5800 5803 5805 5808 5810 5812 5815 5817 5819 5821 5823 5825 5827 5829 5831 5832 5834 5836 5838 5840 5842 5844 5846 5848 5849 5851 5852 5854 5855 5857 5858 5859 5860 5862 5863 5864 5865 5866 5867 5868 5869 5870 5871
5630 5632 5635 5639 5642 5645 5650 5654 5657 5659 5663 5668 5671 5674 5678 5682 5687 5691 5695 5700 5705 5710 5714 5717 5721 5725 5728 5731 5736 5741 5746 5751 5755 5759 5763 5767 5771 5774 5777 5781 5784 5787 5791 5794 5797 5799 5802 5804 5806 5809 5811 5813 5816 5818 5820 5822 5824 5825 5827 5829 5831 5832 5834 5836 5838 5840 5842 5843 5845 5846 5848 5849 5851 5852 5854 5855 5856 5858 5859 5860 5861 5862 5863 5864 5865 5866 5867
5631 5633 5635 5638 5641 5643 5647 5652 5656 5658 5662 5667 5669 5671 5675 5680 5685 5689 5693 5696 5701 5706 5711 5715 5718 5721 5725 5729 5733 5737 5742 5747 5751 5756 5760 5763 5767 5770 5773 5776 5780 5783 5786 5790 5793 5795 5798 5800 5803 5805 5807 5810 5812 5814 5816 5818 5820 5822 5823 5825 5827 5829 5831 5832 5834 5836 5837 5839 5840 5842 5843 5845 5846 5848 5849 5851 5852 5853 5854 5855 5856 5857 5858 5859 5860 5861 5862
5632 5633 5636 5638 5640 5642 5646 5651 5655 5657 5660 5665 5668 5669 5673 5677 5682 5688 5691 5693 5698 5704 5709 5713 5717 5720 5723 5726 5729 5733 5738 5743 5747 5752 5756 5759 5762 5766 5769 5772 5775 5779 5782 5785 5788 5791 5794 5796 5799 5801 5803 5806 5808 5810 5812 5814 5816 5818 5820 5821 5823 5825 5826 5828 5830 5832 5833 5835 5836 5838 5839 5841 5842 5843 5845 5846 5848 5849 5850 5851 5852 5852 5853 5854 5855 5857 5857
5633 5634 5636 5638 5640 5642 5645 5650 5653 5654 5657 5662 5666 5669 5671 5674 5679 5685 5689 5692 5696 5702 5706 5711 5714 5718 5721 5726 5728 5731 5735 5739 5743 5748 5752 5755 5758 5761 5765 5768 5771 5774 5777 5781 5784 5787 5789 5792 5794 5797 5799 5801 5804 5806 5808 5810 5812 5814 5816 5817 5819 5821 5822 5824 5826 5827 5829 5830 5832 5833 5835 5836 5838 5839 5840 5842 5843 5844 5845 5846 5847 5848 5849 5850 5851 5852 5853
5634 5635 5636 5638 5640 5641 5643 5647 5650 5651 5654 5659 5664 5667 5670 5673 5676 5680 5685 5689 5694 5698 5702 5706 5710 5714 5718 5722 5725 5727 5731 5736 5740 5743 5747 5750 5754 5757 5761 5764 5767 5770 5774 5777 5779 5782 5785 5788 5790 5793 5795 5797 5800 5802 5804 5806 5808 5810 5811 5813 5815 5817 5818 5820 5821 5823 5824 5826 5827 5829 5830 5831 5833 5834 5836 5837 5838 5840 5841 5842 5843 5843 5844 5845 5846 5847 5847
5634 5636 5637 5638 5639 5640 5641 5644 5647 5649 5651 5656 5660 5663 5667 5671 5674 5676 5679 5684 5690 5695 5697 5701 5705 5709 5713 5717 5720 5722 5726 5731 5735 5740 5743 5746 5749 5753 5757 5760 5763 5766 5769 5772 5775 5778 5780 5783 5786 5788 5791 5793 5796 5798 5800 5801 5803 5805 5806 5808 5810 5812 5814 5816 5817 5819 5820 5821 5823 5824 5826 5827 5828 5830 5831 5832 5834 5835 5836 5837 5838 5839 5839 5840 5841 5841 5841
5633 5635 5637 5638 5639 5639 5639 5641 5644 5647 5649 5652 5655 5660 5664 5668 5672 5674 5676 5679 5684 5690 5693 5696 5700 5704 5708 5711 5714 5717 5720 5725 5730 5734 5738 5741 5745 5749 5752 5755 5758 5761 5764 5768 5771 5774 5776 5778 5781 5783 5786 5788 5791 5793 5795 5797 5799 5800 5802 5803 5805 5807 5809 5811 5812 5814 5815 5817 5818 5819 5821 5822 5823 5824 5826 5827 5828 5829 5831 5831 5832 5832 5833 5833 5833 5833 5833
5632 5634 5635 5637 5638 5639 5639 5639 5641 5644 5647 5649 5652 5655 5660 5664 5668 5671 5673 5675 5679 5683 5687 5691 5695 5698 5702 5705 5708 5711 5715 5720 5724 5728 5732 5736 5740 5744 5748 5751 5753 5756 5760 5763 5766 5768 5771 5773 5775 5778 5780 5783 5786 5788 5790 5792 5794 5795 5797 5798 5800 5802 5803 5805 5806 5808 5810 5811 5813 5814 5816 5817 5818 5819 5820 5822 5823 5824 5825 5826 5826 5826 5825 5825 5824 5824 5823
5630 5632 5633 5635 5636 5637 5638 5638 5639 5642 5644 5647 5649 5652 5655 5659 5663 5667 5670 5672 5675 5678 5681 5684 5687 5690 5694 5699 5703 5706 5709 5714 5718 5722 5726 5730 5734 5738 5742 5745 5748 5751 5754 5756 5759 5762 5765 5767 5770 5772 5775 5777 5780 5782 5785 5787 5788 5789 5791 5793 5794 5796 5797 5799 5800 5802 5804 5805 5807 5809 5810 5811 5812 5814 5816 5817 5818 5819 5819 5819 5819 5818 5817 5816 5814 5814 5815
5626 5628 5630 5631 5633 5635 5636 5637 5638 5640 5642 5644 5646 5648 5651 5654 5657 5661 5664 5668 5671 5674 5676 5678 5681 5684 5687 5692 5696 5699 5702 5706 5709 5714 5719 5722 5725 5729 5733 5737 5741 5745 5747 5750 5752 5755 5758 5761 5764 5766 5769 5772 5774 5777 5779 5781 5783 5784 5785 5787 5789 5790 5792 5793 5795 5796 5797 5799 5801 5803 5804 5805 5806 5808 5810 5811 5812 5813 5812 5811 5810 5810 5809 5808 5808 5809 5810
5623 5624 5626 5627 5629 5630 5632 5634 5635 5637 5639 5641 5643 5645 5647 5650 5652 5655 5658 5661 5665 5667 5670 5674 5677 5680 5682 5685 5688 5691 5694 5698 5701 5706 5710 5714 5716 5719 5723 5727 5732 5736 5740 5743 5746 5748 5751 5754 5757 5760 5763 5766 5769 5771 5774 5775 5777 5778 5780 5781 5783 5785 5786 5787 5788 5790 5791 5793 5794 5796 5798 5799 5800 5801 5803 5804 5806 5806 5805 5803 5802 5803 5803 5803 5804 5805 5806
5620 5621 5622 5623 5625 5626 5627 5629 5631 5633 5635 5638 5639 5641 5643 5646 5648 5651 5652 5655 5657 5660 5663 5667 5671 5673 5676 5679 5682 5684 5686 5689 5693 5698 5702 5705 5708 5711 5714 5718 5722 5727 5731 5734 5737 5740 5743 5746 5750 5753 5756 5759 5762 5765 5767 5769 5771 5772 5774 5776 5777 5779 5781 5782 5783 5783 5785 5787 5788 5789 5791 5792 5793 5795 5796 5797 5797 5798 5797 5796 5795 5796 5796 5797 5798 5799 5801
5618 5618 5619 5620 5621 5622 5623 5624 5626 5627 5630 5633 5635 5636 5638 5640 5643 5645 5647 5649 5652 5654 5656 5659 5662 5665 5668 5672 5675 5678 5680 5682 5685 5689 5693 5697 5700 5703 5706 5710 5715 5719 5722 5725 5728 5731 5735 5738 5742 5745 5748 5751 5754 5758 5760 5762 5764 5766 5767 5769 5771 5773 5774 5776 5777 5777 5779 5780 5782 5783 5784 5785 5786 5788 5789 5789 5790 5790 5790 5789 5788 5788 5789 5790 5791 5792 5793
5617 5617 5617 5617 5618 5618 5619 5620 5621 5623 5625 5627 5630 5632 5633 5634 5637 5639 5641 5643 5646 5648 5650 5653 5656 5658 5661 5665 5668 5671 5673 5675 5678 5681 5684 5688 5691 5695 5698 5702 5707 5711 5715 5717 5720 5724 5727 5730 5733 5736 5740 5743 5746 5749 5752 5755 5757 5759 5761 5763 5764 5766 5767 5769 5770 5771 5772 5774 5775 5776 5777 5778 5779 5780 5781 5782 5782 5782 5782 5783 5782 5782 5782 5782 5782 5784 5785
5614 5615 5616 5616 5616 5616 5616 5616 5617 5619 5620 5622 5624 5627 5628 5630 5631 5633 5635 5636 5638 5641 5644 5647 5650 5652 5655 5658 5661 5664 5666 5669 5672 5674 5677 5680 5684 5688 5692 5695 5699 5703 5707 5709 5712 5716 5720 5722 5725 5728 5732 5735 5737 5740 5744 5747 5750 5752 5754 5755 5757 5758 5760 5761 5763 5765 5765 5766 5768 5769 5770 5772 5773 5773 5774 5774 5774 5775 5776 5777 5777 5776 5776 5775 5775 5776 5776
5611 5611 5612 5613 5614 5614 5614 5614 5614 5615 5616 5617 5619 5621 5624 5625 5627 5628 5629 5630 5632 5634 5636 5639 5642 5646 5648 5652 5655 5658 5661 5663 5666 5669 5671 5674 5678 5682 5687 5690 5693 5697 5700 5702 5705 5709 5713 5716 5719 5722 5725 5727 5730 5733 5737 5740 5742 5744 5746 5748 5750 5751 5752 5754 5756 5757 5759 5760 5761 5763 5764 5765 5766 5767 5766 5766 5768 5770 5770 5770 5770 5770 5770 5769 5769 5769 5769
5611 5609 5609 5609 5610 5610 5611 5611 5611 5612 5612 5613 5614 5616 5618 5620 5621 5622 5623 5625 5626 5628 5629 5631 5634 5638 5640 5643 5648 5652 5655 5657 5660 5664 5666 5669 5672 5677 5681 5685 5688 5692 5694 5697 5700 5703 5706 5709 5712 5716 5719 5721 5724 5727 5730 5733 5735 5736 5738 5740 5742 5743 5745 5746 5748 5750 5752 5753 5755 5757 5758 5759 5760 5760 5760 5760 5761 5762 5763 5763 5764 5764 5764 5764 5764 5764 5763
5610 5608 5607 5607 5606 5606 5607 5607 5608 5609 5609 5610 5611 5611 5613 5614 5615 5615 5617 5618 5620 5622 5623 5625 5627 5630 5632 5635 5638 5643 5647 5651 5655 5657 5660 5663 5667 5671 5674 5678 5682 5686 5689 5691 5694 5697 5700 5702 5706 5709 5713 5716 5718 5721 5723 5725 5727 5729 5731 5732 5734 5736 5737 5739 5741 5743 5744 5746 5748 5750 5751 5752 5753 5753 5753 5753 5754 5754 5755 5756 5756 5757 5757 5757 5757 5756 5755
5608 5607 5606 5606 5605 5604 5604 5604 5604 5605 5606 5606 5607 5608 5608 5609 5610 5610 5611 5612 5614 5616 5618 5619 5620 5622 5625 5628 5630 5634 5638 5643 5647 5650 5653 5657 5662 5665 5668 5671 5675 5678 5681 5684 5688 5691 5694 5696 5699 5702 5705 5708 5711 5714 5716 5717 5720 5722 5723 5725 5727 5729 5730 5731 5732 5734 5736 5738 5740 5741 5743 5744 5744 5745 5745 5745 5746 5746 5746 5747 5747 5748 5748 5748 5748 5747 5747
5606 5606 5605 5604 5604 5603 5603 5602 5602 5602 5602 5603 5603 5604 5604 5605 5606 5606 5606 5607 5609 5610 5612 5613 5614 5616 5618 5621 5624 5626 5629 5633 5638 5641 5645 5650 5654 5658 5661 5664 5667 5670 5673 5676 5680 5684 5687 5690 5692 5695 5698 5700 5703 5706 5708 5710 5713 5715 5716 5718 5719 5721 5722 5723 5724 5726 5728 5730 5731 5732 5733 5734 5735 5735 5736 5736 5736 5737 5737 5738 5738 5738 5739 5739 5739 5738 5739
5604 5603 5603 5602 5601 5601 5601 5601 5600 5600 5600 5600 5600 5601 5602 5602 5602 5603 5603 5603 5604 5605 5606 5608 5610 5611 5612 5614 5617 5620 5622 5624 5628 5631 5636 5641 5646 5650 5655 5658 5660 5662 5665 5669 5672 5676 5680 5683 5686 5688 5690 5693 5696 5699 5702 5704 5706 5708 5709 5710 5712 5713 5714 5715 5717 5718 5720 5721 5722 5723 5724 5725 5726 5726 5726 5727 5727 5727 5728 5729 5730 5730 5731 5731 5731 5731 5731
5601 5601 5601 5600 5599 5599 5599 5599 5598 5598 5598 5598 5598 5599 5600 5600 5601 5601 5601 5601 5601 5601 5603 5604 5605 5606 5607 5609 5611 5613 5615 5617 5619 5622 5625 5630 5636 5642 5647 5650 5653 5655 5657 5660 5664 5668 5672 5675 5678 5681 5683 5686 5689 5692 5694 5697 5699 5701 5702 5703 5704 5705 5706 5707 5708 5710 5711 5713 5714 5715 5716 5717 5718 5719 5719 5719 5720 5720 5721 5722 5722 5723 5723 5723 5723 5723 5723
5597 5597 5598 5598 5597 5597 5597 5597 5596 5596 5596 5596 5597 5597 5598 5598 5598 5598 5598 5599 5599 5599 5600 5601 5602 5603 5604 5605 5606 5608 5610 5611 5613 5615 5618 5622 5627 5632 5637 5641 5644 5647 5649 5651 5654 5659 5664 5667 5670 5673 5675 5678 5681 5684 5686 5689 5691 5693 5694 5696 5697 5697 5698 5699 5700 5702 5703 5705 5706 5707 5708 5709 5710 5711 5712 5713 5714 5715 5715 5716 5716 5716 5716 5716 5716 5715 5715
5594 5594 5594 5595 5595 5594 5594 5594 5594 5594 5594 5594 5594 5595 5595 5595 5596 5596 5596 5596 5597 5597 5598 5598 5599 5600 5600 5601 5602 5604 5605 5607 5608 5610 5612 5615 5619 5623 5628 5632 5636 5639 5641 5643 5646 5650 5655 5658 5661 5664 5667 5669 5672 5675 5678 5680 5682 5685 5686 5688 5689 5690 5690 5691 5692 5694 5695 5697 5698 5699 5700 5701 5701 5703 5704 5706 5707 5707 5708 5709 5709 5708 5708 5707 5707 5707 5706
5590 5590 5590 5591 5591 5591 5591 5591 5591 5591 5591 5591 5592 5592 5592 5592 5593 5593 5593 5594 5594 5595 5596 5596 5597 5597 5598 5598 5599 5600 5601 5603 5604 5606 5608 5611 5613 5617 5620 5624 5627 5630 5633 5635 5638 5641 5644 5647 5650 5653 5656 5659 5662 5665 5668 5671 5673 5675 5677 5679 5680 5681 5683 5684 5686 5687 5688 5689 5690 5691 5692 5692 5693 5694 5696 5697 5698 5698 5698 5699 5699 5699 5699 5699 5698 5698 5698
5586 5586 5586 5586 5587 5587 5587 5587 5587 5588 5588 5588 5588 5588 5589 5589 5590 5590 5591 5591 5592 5592 5593 5593 5594 5594 5595 5595 5596 5597 5598 5599 5601 5603 5605 5607 5609 5612 5615 5618 5620 5623 5625 5628 5629 5631 5633 5636 5639 5643 5646 5649 5652 5655 5658 5661 5663 5666 5668 5670 5671 5672 5674 5676 5678 5679 5680 5681 5682 5683 5683 5684 5685 5686 5687 5688 5689 5689 5689 5689 5689 5689 5689 5690 5690 5690 5690
5583 5582 5582 5582 5583 5583 5583 5583 5583 5584 5585 5585 5585 5585 5586 5586 5587 5587 5588 5588 5589 5589 5590 5590 5591 5591 5592 5593 5593 5595 5596 5597 5598 5599 5601 5602 5605 5608 5610 5613 5615 5617 5619 5621 5622 5623 5625 5628 5630 5634 5636 5639 5642 5645 5648 5650 5653 5656 5659 5660 5662 5663 5665 5667 5669 5670 5671 5672 5673 5674 5674 5675 5676 5677 5678 5679 5680 5680 5680 5680 5680 5680 5680 5681 5681 5681 5681
5579 5579 5579 5579 5579 5579 5579 5580 5579 5579 5580 5582 5582 5582 5582 5583 5583 5584 5585 5585 5586 5586 5586 5587 5588 5588 5589 5590 5591 5592 5593 5594 5595 5596 5597 5599 5601 5604 5606 5608 5609 5611 5613 5615 5616 5618 5620 5622 5624 5626 5629 5631 5633 5636 5638 5641 5643 5646 5649 5651 5652 5654 5656 5658 5660 5661 5661 5662 5663 5664 5666 5667 5667 5668 5669 5670 5671 5672 5672 5672 5672 5672 5672 5672 5671 5671 5670